This is the latest recevied weather packets stored in our database for station/object SHLBYV-WX. If no packets are shown the sender has not sent any weather packets the latest 10 day(s).
| Time | Temp. | Humidity | Pressure | Rain* | Wind** | Luminosity | Snow |
|---|---|---|---|---|---|---|---|
| 1777863685 | 8.33° C | 78% | 978 hPa | 0 mm | - | - | - |
| 1777862749 | 8.33° C | 75% | 977.7 hPa | 0 mm | - | - | - |
| 1777861865 | 8.33° C | 77% | 977.9 hPa | 0 mm | - | - | - |
| 1777860949 | 8.89° C | 77% | 977.9 hPa | 0 mm | - | - | - |
| 1777860083 | 8.89° C | 77% | 977.9 hPa | 0 mm | - | - | - |
| 1777859149 | 8.89° C | 74% | 978.5 hPa | 0 mm | - | - | - |
| 1777858268 | 8.89° C | 74% | 978.5 hPa | 0 mm | - | - | - |
| 1777857348 | 8.89° C | 74% | 978.5 hPa | 0 mm | - | - | - |
| 1777856482 | 9.44° C | 74% | 978.5 hPa | 0 mm | - | - | - |
| 1777855549 | 9.44° C | 70% | 979.1 hPa | 0 mm | - | - | - |
| 1777854668 | 10° C | 73% | 979.4 hPa | 0 mm | - | - | - |
| 1777853749 | 10.56° C | 73% | 979.4 hPa | 0 mm | - | - | - |
| 1777852891 | 10.56° C | 73% | 979.4 hPa | 0 mm | - | - | - |
| 1777851951 | 11.11° C | 67% | 980.3 hPa | 0 mm | - | - | - |
| 1777851069 | 11.67° C | 61% | 979.8 hPa | 0 mm | - | - | - |
| 1777850150 | 12.22° C | 61% | 979.8 hPa | 0 mm | - | - | - |
| 1777849274 | 12.78° C | 61% | 979.8 hPa | 0 mm | - | - | - |
| 1777848351 | 12.78° C | 58% | 980.6 hPa | 0 mm | - | - | - |
| 1777847470 | 12.78° C | 57% | 980.6 hPa | 0 mm | - | - | - |
| 1777846551 | 13.33° C | 57% | 980.6 hPa | 0 mm | - | - | - |
| 1777845690 | 12.78° C | 57% | 980.6 hPa | 0 mm | - | - | - |
| 1777844750 | 12.78° C | 56% | 981.1 hPa | 0 mm | - | - | - |
| 1777843868 | 13.33° C | 54% | 980.9 hPa | 0 mm | - | - | - |
| 1777842950 | 13.89° C | 54% | 980.9 hPa | 0 mm | - | - | - |
| 1777842080 | 13.33° C | 54% | 980.9 hPa | 0 mm | - | - | - |
* Rain latest hour (hover to see other rain measurements)
** Current wind speed in m/s (hover to see current wind gust speed)